Flag for India Weather past 2 weeks in Dindigul, Tamil Nadu, India

Now
82 °F

Broken clouds.


Feels Like: 87 °F
Forecast: 73 / 90 °F
Wind: 3 mph from Northeast

Location: Tiruchchirapalli

Current Time: Apr 25, 2015 at 1:00:55 PM

Latest Report: Apr 25, 2015 at 12:10 PM


Visibility: 3 mi

Pressure: 29.89 "Hg

Humidity: 70%

Dew point: 72 °F

Location of DindigulLocation

Historic Weather in Dindigul — Graph

°F

Dindigul temperature yesterday

Maximum temperature yesterday: 99 °F (at 2:10 PM)
Minimum temperature yesterday: 81 °F (at 11:40 PM)
Average temperature yesterday: 89 °F

Past Weeks' High & Low Weather Summary

 TemperatureHumidityPressure
High102 °F (Apr 11, 3:10 PM)100% (Apr 13, 2:40 AM)29.98 "Hg (Apr 13, 2:40 AM)
Low70 °F (Apr 18, 2:40 AM)29% (Apr 10, 5:40 PM)29.68 "Hg (Apr 18, 3:10 PM)
Average86 °F67%29.83 "Hg
* Reported Apr 10 11:40 AM — Apr 25 11:40 AM, Dindigul, Weather by CustomWeather, © 2015

Note: Actual official high and low records may vary slightly from our data, if they occured in-between our weather recording intervals... More about our weather records

Advertising

Dindigul weather history for previous 24 hours

 ConditionsComfort  
Time TempWeatherWind HumidityBarometerVisibility
11:40 AM
Sat, Apr 25
82 °FBroken clouds.3 mph70%29.89 "Hg3 mi
11:10 AM82 °FBroken clouds.6 mph66%29.86 "Hg3 mi
10:40 AM81 °FBroken clouds.9 mph70%29.86 "Hg3 mi
9:40 AM77 °FFog.12 mph79%29.86 "Hg3 mi
8:40 AM75 °FFog.15 mph89%29.86 "Hg3 mi
7:40 AM75 °FFog.3 mph83%29.83 "Hg2 mi
7:10 AM73 °FFog.8 mph94%29.83 "Hg2 mi
6:40 AM73 °FFog.7 mph94%29.83 "Hg2 mi
6:10 AM73 °FFog.6 mph94%29.86 "Hg2 mi
5:40 AM73 °FFog.7 mph94%29.86 "Hg2 mi
5:10 AM73 °FFog.6 mph94%29.86 "Hg2 mi
4:40 AM73 °FDrizzle. Mostly cloudy.5 mph94%29.86 "Hg2 mi
4:10 AM73 °FLight rain. Mostly cloudy.3 mph94%29.86 "Hg2 mi
3:40 AM73 °FLight rain. Mostly cloudy.5 mph94%29.86 "Hg2 mi
3:10 AM73 °FLight rain. Mostly cloudy.9 mph94%29.86 "Hg2 mi
1:40 AM79 °FDrizzle. Mostly cloudy.10 mph89%29.86 "Hg3 mi
12:40 AM79 °FLight rain. Mostly cloudy.14 mph89%29.89 "Hg2 mi
11:40 PM
Fri, Apr 24
81 °FFog.15 mph84%29.86 "Hg3 mi
11:10 PM86 °FPartly cloudy.3 mph75%29.83 "Hg4 mi
10:40 PM86 °FPartly cloudy.5 mph75%29.83 "Hg4 mi
10:10 PM86 °FPartly cloudy.5 mph75%29.83 "Hg4 mi
9:40 PM86 °FPartly cloudy.9 mph70%29.80 "Hg4 mi
9:10 PM88 °FPassing clouds.10 mph66%29.83 "Hg4 mi
8:40 PM88 °FPassing clouds.10 mph66%29.83 "Hg4 mi
7:40 PM90 °FThunderstorms. Partly cloudy.13 mph63%29.80 "Hg4 mi
7:10 PM90 °FPassing clouds.12 mph63%29.77 "Hg4 mi
6:40 PM91 °FScattered clouds.10 mph63%29.77 "Hg4 mi
6:10 PM91 °FScattered clouds.10 mph63%29.74 "Hg5 mi
5:40 PM93 °FScattered clouds.14 mph56%29.74 "HgN/A
5:10 PM99 °FScattered clouds.9 mph42%29.71 "HgN/A
4:40 PM99 °FScattered clouds.3 mph42%29.71 "HgN/A
4:10 PM99 °FScattered clouds.3 mph42%29.71 "HgN/A
3:40 PM99 °FScattered clouds.5 mph42%29.74 "HgN/A
3:10 PM99 °FScattered clouds.6 mph42%29.74 "HgN/A
2:40 PM99 °FScattered clouds.3 mph42%29.74 "HgN/A
2:10 PM99 °FScattered clouds.6 mph44%29.77 "HgN/A
1:40 PM97 °FScattered clouds.6 mph47%29.77 "Hg5 mi
1:10 PM97 °FScattered clouds.6 mph47%29.80 "Hg5 mi
Weather by CustomWeather, © 2015

See weather overviewHow to use our weather pages